Theta_e
320 319 318 320 323 322 327 330 330 331 331 329 326 336 338 334 332 335 347 352 354 359 363 358 343 340 341 342 343 344 344 341 332 330 332 337 338 342 340 340 345 348 347 346 346 346 345 344 342
318 321 318 320 319 320 323 326 327 329 325 324 326 326 326 329 337 344 346 350 352 360 363 358 341 339 340 343 343 344 344 340 333 336 335 337 339 339 337 336 343 346 346 346 344 342 340 336 331
321 322 321 320 320 319 321 322 323 325 323 323 324 324 324 336 337 339 340 351 351 362 363 360 342 338 338 341 342 344 344 340 337 341 338 337 339 339 339 335 336 345 347 345 343 341 339 338 335
321 320 319 321 321 322 320 321 321 322 322 322 322 324 331 335 338 343 350 356 352 361 362 360 345 337 336 337 339 342 343 341 342 343 341 340 341 340 339 333 337 345 347 343 340 338 336 330 328
320 320 320 321 321 321 319 320 321 321 321 321 321 323 324 329 336 341 351 357 356 358 362 361 348 337 334 333 335 336 339 341 343 344 344 342 341 339 336 334 344 346 346 341 338 338 329 326 326
319 320 319 320 320 321 322 322 321 321 322 321 321 321 324 321 334 341 350 358 357 358 360 361 354 339 334 332 331 331 334 337 341 343 342 342 340 336 334 337 343 347 346 340 338 329 327 329 329
319 319 318 318 319 320 321 321 321 321 321 322 321 321 323 322 330 337 347 356 357 358 359 360 355 349 334 332 329 327 330 332 335 338 340 340 337 335 331 334 339 342 339 337 334 329 331 329 329
319 320 318 319 319 320 323 319 319 320 321 320 320 322 322 320 326 335 342 355 357 358 358 358 356 351 345 343 329 328 330 331 332 334 334 333 334 335 334 337 340 338 336 337 330 331 331 331 330
316 317 317 318 320 319 320 318 318 317 317 318 318 320 320 318 322 327 340 350 357 359 358 358 358 353 347 345 343 332 332 330 331 332 332 335 338 339 338 342 341 338 339 333 332 331 331 329 328
315 315 315 317 317 317 316 316 316 316 316 316 317 318 317 318 320 323 325 336 351 355 356 357 357 356 350 347 346 343 344 340 340 340 341 336 340 341 341 345 341 337 334 334 331 330 329 327 334
314 315 315 314 315 315 316 316 316 316 316 316 316 317 318 317 318 320 322 328 334 351 353 355 356 356 353 349 347 344 344 344 344 344 341 340 344 345 345 344 340 341 336 339 340 340 337 336 339
315 315 315 316 316 315 316 316 316 315 316 316 316 317 317 317 318 318 320 321 327 341 353 353 354 356 353 351 349 347 345 346 345 346 346 345 345 345 342 341 339 342 339 340 340 338 340 343 345
314 314 315 315 314 314 314 314 314 314 315 315 316 316 316 317 318 317 317 322 325 334 347 353 353 356 353 352 350 348 347 346 344 345 347 344 342 343 342 341 339 338 339 340 340 342 344 344 345
314 314 314 314 314 315 315 314 314 313 313 314 315 317 317 317 317 317 317 319 325 328 337 349 354 354 355 352 351 350 348 346 345 344 345 345 341 342 341 342 339 338 341 341 343 344 346 346 347
315 315 315 315 315 315 316 316 316 316 314 316 316 316 317 318 317 317 316 317 319 327 331 344 353 355 355 354 352 350 349 347 346 344 345 344 343 343 341 339 337 341 344 349 349 349 349 348 347
316 316 316 316 316 316 317 318 317 317 317 318 317 317 317 317 317 315 315 317 318 323 328 339 348 354 354 354 354 351 350 348 346 345 346 345 343 342 342 337 338 346 347 346 347 348 347 346 347
317 317 317 317 316 316 317 318 318 318 318 319 319 319 318 318 318 316 316 318 319 320 326 337 347 353 353 354 354 352 351 349 347 345 345 345 342 340 338 335 345 348 346 346 347 347 346 346 347
316 316 316 317 316 316 317 318 318 318 318 318 319 319 319 318 318 317 317 318 319 320 321 332 341 350 353 353 353 352 351 348 347 346 344 345 342 340 338 339 346 349 347 347 346 347 347 347 346
316 316 317 317 316 317 318 319 319 319 319 319 319 319 320 320 318 317 317 317 319 320 322 326 332 337 352 352 352 352 350 348 346 345 344 344 340 342 345 344 348 349 346 346 349 349 347 342 341
315 317 318 317 316 318 319 320 320 320 320 319 320 320 319 320 320 319 318 317 319 321 322 330 335 341 349 352 352 352 350 347 346 344 344 342 338 344 346 347 348 347 346 349 348 347 344 337 335
316 317 318 317 317 318 320 321 320 319 319 319 320 320 320 320 320 320 319 317 317 319 322 327 337 344 347 353 350 350 350 348 346 345 344 340 338 344 347 350 348 349 348 348 347 345 343 338 330
317 316 316 317 320 321 319 321 320 320 320 320 320 320 320 320 320 320 320 319 318 319 320 326 335 344 346 349 349 350 350 348 345 344 343 340 338 345 349 349 349 347 345 343 340 340 339 335 333
315 317 319 319 320 320 319 321 320 320 320 319 318 318 319 319 320 320 319 319 318 318 319 323 333 342 346 346 349 348 349 347 345 343 345 343 342 348 348 347 346 342 338 335 331 329 328 327 325
317 317 316 317 318 322 321 321 320 320 319 319 319 319 317 317 318 319 319 318 318 318 318 320 330 340 344 346 347 349 348 347 345 345 347 347 347 348 346 343 337 335 332 329 326 321 319 322 321
317 317 323 323 323 326 321 321 320 320 319 318 319 319 319 318 318 319 319 319 318 318 319 319 325 337 343 345 346 349 349 347 347 347 346 344 342 339 337 337 337 333 327 322 319 317 317 317 315
315 316 322 325 322 322 319 321 320 318 318 318 318 319 319 319 320 320 320 320 319 319 319 319 325 333 341 345 345 347 350 350 347 345 343 340 340 340 340 332 330 326 322 319 316 315 314 313 313
319 320 317 327 322 323 320 319 318 318 318 320 320 319 321 320 321 321 321 321 321 321 321 321 322 331 338 342 344 347 350 349 347 346 342 342 340 335 331 328 325 321 319 317 314 311 310 311 312
316 315 322 323 325 324 320 319 318 318 317 318 320 320 320 320 319 320 320 320 321 323 323 322 321 327 337 339 344 345 348 349 345 342 341 339 334 331 328 325 324 321 317 313 311 312 313 313 312
318 317 318 320 323 324 322 319 319 318 317 318 318 319 320 320 319 320 320 319 319 320 322 323 322 325 333 339 343 343 346 345 342 342 338 337 333 329 328 325 321 317 315 313 313 312 312 313 312
315 317 318 327 323 323 325 325 318 317 317 318 318 317 317 318 319 319 319 319 319 319 321 323 323 324 333 337 341 343 344 343 341 340 336 332 329 327 324 321 319 317 316 314 313 312 311 311 310
Wind_Speed
5 4 4 7 7 6 14 8 5 7 7 2 5 8 10 10 8 4 11 7 4 14 25 26 32 28 27 28 31 30 30 28 27 27 27 27 27 25 23 22 21 18 16 12 11 9 8 6 4
3 3 7 3 8 12 12 8 12 3 5 7 8 7 9 4 14 5 12 16 3 13 21 29 34 31 29 29 30 30 30 28 29 27 26 26 24 23 22 21 20 18 13 10 8 7 6 5 4
2 5 5 5 9 13 12 7 8 2 3 4 5 3 6 5 13 12 18 16 5 15 19 23 36 33 30 29 29 30 30 28 28 26 25 25 23 21 20 20 19 16 11 9 7 6 4 3 3
5 6 4 9 13 11 8 4 1 5 5 1 5 5 7 8 13 16 17 10 5 15 20 22 33 33 31 28 27 27 27 26 26 24 23 22 21 19 19 18 18 15 11 8 6 5 4 3 3
7 4 9 12 15 6 3 3 5 6 4 5 5 3 5 8 12 15 14 7 5 14 18 18 29 31 29 28 27 25 25 24 24 22 22 20 19 19 18 18 17 12 10 8 6 4 4 4 4
6 5 10 14 15 9 6 3 8 6 6 6 6 9 3 6 15 15 14 8 4 13 17 18 24 29 27 26 25 24 23 23 23 22 21 19 18 18 17 17 16 13 10 8 6 5 5 4 4
11 8 15 15 9 10 7 1 3 6 7 9 7 8 4 9 14 13 12 7 1 9 17 18 21 22 26 24 22 21 21 22 22 21 20 18 18 17 18 17 15 12 9 8 6 5 4 4 5
6 6 8 11 11 16 7 4 1 7 10 7 10 5 3 12 11 11 11 6 5 6 14 18 21 21 19 18 20 20 20 20 20 20 19 19 17 16 15 14 12 11 10 8 7 6 5 6 7
3 7 11 13 10 11 2 10 4 1 13 14 10 12 12 10 10 9 5 4 2 7 9 16 20 22 21 19 19 19 18 18 19 18 18 17 14 14 13 12 12 10 8 8 6 6 6 7 8
6 7 7 7 5 9 9 12 12 9 11 11 15 12 7 7 6 9 8 5 3 7 9 13 18 22 22 20 19 18 15 14 14 14 15 15 13 14 13 12 12 10 8 7 6 7 7 7 8
2 7 2 4 4 8 11 14 14 12 14 11 9 14 12 12 8 8 7 4 4 7 12 13 17 19 22 21 20 19 18 17 15 14 15 13 13 13 12 10 9 8 7 6 5 6 6 7 6
9 3 5 3 8 10 14 14 18 18 16 12 11 14 15 13 11 8 9 6 4 8 12 15 17 21 21 21 21 20 19 18 17 16 16 14 13 12 13 11 10 8 7 6 6 6 6 6 6
9 2 6 9 13 15 13 18 20 22 18 17 15 14 16 16 14 13 8 8 7 8 12 18 20 21 23 22 22 20 19 19 17 18 18 15 14 13 12 11 10 8 7 6 6 6 6 6 6
2 9 12 12 12 9 12 14 13 16 19 19 13 15 14 18 18 19 14 12 11 11 13 17 22 24 23 23 22 22 21 19 19 17 18 18 15 14 13 11 10 8 7 6 6 5 6 7 7
9 13 11 7 7 12 9 18 22 15 13 14 18 15 14 15 20 21 19 18 14 14 14 18 23 25 27 25 23 22 21 20 20 17 17 17 15 13 12 11 10 9 7 6 5 5 5 5 4
11 10 10 5 7 8 8 19 18 7 13 16 19 18 16 15 15 23 22 14 15 15 16 18 21 26 28 27 25 22 21 21 20 18 16 16 15 14 13 11 10 8 7 7 6 4 4 4 6
11 9 14 13 7 14 12 19 14 7 15 19 18 18 17 16 14 17 19 16 13 13 16 19 21 25 29 28 25 22 21 21 19 18 17 17 16 15 14 12 11 8 7 7 7 5 5 5 7
16 17 16 17 12 16 20 24 22 20 20 20 19 19 18 18 17 16 18 17 14 12 15 19 23 23 27 27 26 24 21 20 19 17 16 18 17 15 14 13 11 9 9 7 8 7 4 5 6
15 18 20 19 16 17 20 24 25 21 21 21 21 21 20 19 18 18 19 18 14 11 12 18 21 24 25 27 27 26 26 24 21 18 18 16 16 17 16 13 12 10 10 9 8 7 5 5 4
18 20 21 19 16 16 23 28 25 23 24 24 22 21 20 19 18 17 20 20 15 13 12 15 20 22 27 27 28 26 25 24 23 21 20 21 18 17 14 13 13 10 8 8 9 7 5 3 3
19 19 20 20 20 20 22 24 17 4 9 13 15 16 17 19 18 18 18 20 19 14 12 13 18 20 25 26 26 18 19 18 21 22 20 19 18 17 14 12 10 10 8 8 6 6 7 7 3
20 16 18 18 16 13 15 11 18 12 12 8 7 10 12 16 17 16 17 20 21 19 14 11 14 19 26 26 26 22 26 23 26 27 24 21 20 17 14 12 10 10 7 5 2 1 3 5 6
19 9 14 16 18 20 19 12 8 7 8 5 5 2 8 10 14 18 19 22 22 22 19 14 12 17 22 28 27 25 27 26 22 22 27 24 21 18 16 16 13 11 9 8 8 4 3 2 4
6 12 18 21 16 13 15 14 8 4 7 3 10 6 3 3 5 11 17 19 19 22 20 18 15 16 23 26 29 28 26 24 28 27 26 27 27 19 16 16 17 14 12 13 13 12 8 5 11
10 12 8 5 6 9 5 9 13 12 15 10 6 6 6 7 9 9 12 14 18 19 19 16 18 17 22 28 29 30 29 27 29 30 28 30 29 23 20 18 19 19 18 14 12 16 10 11 15
19 13 6 6 9 13 11 8 1 4 8 7 9 11 6 3 1 4 6 7 10 12 13 14 17 18 20 25 28 30 29 29 27 28 28 29 34 31 25 24 20 18 19 17 12 15 12 15 15
2 6 9 6 17 10 9 12 12 8 5 5 6 2 2 1 2 3 4 6 8 9 11 12 16 16 17 21 27 30 33 30 27 29 30 24 26 27 28 22 24 20 19 16 17 15 15 15 15
15 7 7 5 5 8 8 12 9 6 1 3 4 2 1 3 5 5 6 7 8 9 7 9 16 17 18 20 26 30 34 30 34 36 33 32 27 29 32 29 23 18 18 18 17 16 14 14 12
4 11 8 8 8 7 13 4 7 3 8 5 7 1 6 8 10 12 12 13 12 11 11 6 12 19 17 19 25 29 32 30 36 35 35 38 35 32 32 25 23 22 20 18 17 17 15 14 10
16 17 15 8 10 11 14 15 11 5 5 1 4 7 12 16 17 17 16 16 14 15 12 9 10 17 18 16 21 28 31 36 35 37 38 38 35 28 27 24 24 22 21 19 19 16 13 11 9
Wind_Direction
332 275 236 228 237 232 247 222 294 215 207 40 305 267 338 338 351 15 27 37 333 177 167 174 178 181 178 173 169 175 172 170 167 163 163 164 163 163 159 157 156 154 150 143 144 148 155 168 183
291 222 219 234 250 232 235 221 223 153 352 308 285 264 256 70 25 355 345 346 300 181 178 168 178 181 177 176 172 175 176 171 168 165 165 166 165 163 161 162 163 160 152 146 144 150 161 168 172
215 217 240 233 241 250 257 139 245 205 310 307 295 329 337 30 5 349 334 326 229 182 179 175 177 181 178 176 174 177 178 173 171 169 168 168 167 165 164 163 165 163 155 150 146 153 167 178 191
207 198 219 243 234 247 284 122 288 248 192 236 340 250 115 58 358 351 338 334 206 184 179 183 182 181 179 178 178 178 180 175 174 173 171 170 168 166 166 165 164 162 157 150 150 157 172 197 220
213 243 238 239 244 242 215 252 262 264 256 255 327 271 300 39 357 358 355 340 219 186 183 178 184 183 180 180 180 179 180 177 176 177 176 173 170 168 168 167 165 163 162 164 169 173 188 201 217
209 278 234 235 220 240 226 255 271 241 270 274 272 305 278 8 4 3 6 354 227 184 182 172 179 185 182 182 182 180 179 177 177 177 177 175 173 171 170 171 169 169 176 177 179 189 195 211 231
261 232 251 263 264 240 225 326 225 278 264 270 346 286 311 13 356 358 7 14 282 187 178 165 174 178 182 184 181 182 180 178 177 177 177 177 174 174 173 175 178 181 184 182 190 193 214 226 245
270 261 247 237 234 246 139 263 200 255 281 324 273 261 302 0 344 353 8 30 149 185 184 168 177 174 174 172 181 182 179 176 175 175 174 172 174 177 177 180 188 187 187 193 201 210 226 247 252
252 249 249 247 233 245 257 281 234 242 278 283 278 282 302 327 331 335 10 33 104 166 185 168 181 177 178 171 170 175 175 174 174 171 174 169 167 170 183 189 204 193 197 202 208 231 248 257 263
254 255 273 354 327 271 290 290 294 291 259 266 278 266 270 306 323 322 336 15 133 157 196 182 181 182 178 173 167 164 168 168 168 168 171 173 177 179 183 190 197 196 207 214 230 250 258 264 254
181 277 81 227 293 280 295 290 288 279 271 261 276 295 294 302 288 307 310 324 333 188 183 192 178 187 182 176 169 172 172 174 174 177 178 183 184 187 185 189 193 199 224 231 244 261 255 248 265
255 220 251 255 278 266 269 285 278 277 278 284 268 285 284 277 281 286 287 301 253 220 200 191 180 183 188 180 175 178 175 178 180 182 182 185 191 191 197 198 194 200 212 228 241 244 251 256 267
252 199 253 264 277 273 272 262 265 271 278 271 264 266 269 277 274 274 266 274 257 230 212 197 187 189 189 185 181 182 182 182 186 184 186 189 194 198 200 202 202 202 206 228 237 240 255 261 272
3 286 279 270 271 283 276 270 250 260 257 268 276 269 269 276 278 273 262 249 251 234 220 217 205 191 194 192 185 183 184 185 188 192 192 190 191 198 201 201 207 206 213 218 223 236 263 270 277
285 273 281 235 241 286 291 269 244 249 263 263 275 263 261 263 273 268 269 267 245 232 223 218 212 200 194 198 192 189 188 186 188 191 193 190 191 194 201 202 201 198 197 213 231 256 249 258 260
268 269 261 163 297 284 246 278 292 193 254 265 270 270 265 260 262 264 263 258 246 232 221 214 216 204 200 198 198 193 192 193 189 186 191 192 188 183 188 198 198 199 197 209 224 231 239 258 270
203 282 297 292 238 288 258 280 290 245 266 276 269 267 261 262 253 247 246 247 247 242 228 216 210 210 206 204 200 196 191 190 191 186 183 186 186 183 182 189 196 198 203 203 207 207 238 252 266
316 300 298 295 305 288 278 274 277 275 266 263 264 263 259 255 250 240 233 245 246 245 235 223 213 215 211 204 197 196 193 191 188 185 179 178 178 177 177 188 192 199 205 202 215 205 212 263 273
294 287 286 288 296 291 282 282 281 275 266 263 258 252 253 249 245 238 234 237 245 237 244 225 219 216 213 206 192 192 193 190 185 180 174 175 177 175 174 188 194 196 207 205 195 205 199 242 263
280 282 281 289 292 299 294 284 285 274 265 261 259 255 249 249 241 231 234 231 240 247 242 233 227 217 211 199 198 201 195 194 186 174 177 179 173 182 181 183 188 187 191 189 201 204 215 231 288
273 279 293 298 302 282 276 288 269 214 244 250 255 255 254 250 244 233 228 230 237 241 240 236 225 220 212 203 198 189 191 190 182 167 180 170 169 182 184 176 187 167 194 189 224 218 214 217 132
283 291 304 291 285 288 322 289 293 300 283 284 270 244 245 237 236 240 233 228 233 236 238 237 225 212 207 211 194 187 186 182 187 172 172 159 166 181 179 162 175 157 171 149 182 276 230 223 144
285 313 286 287 281 285 274 258 291 219 279 113 60 334 249 244 240 231 227 230 232 243 238 227 221 212 200 206 205 195 200 188 176 177 155 149 163 179 167 163 158 150 146 139 133 93 38 2 66
315 272 291 271 262 268 269 239 276 271 1 306 328 279 237 300 236 238 244 235 234 241 243 235 219 206 203 204 202 200 188 185 176 172 150 156 156 168 156 154 151 143 144 146 143 130 122 88 80
246 303 304 283 185 251 93 290 267 293 299 309 307 312 296 245 258 245 222 224 228 237 234 236 223 210 200 202 206 199 189 189 176 156 157 153 147 151 157 157 159 159 151 135 130 117 114 104 82
291 286 263 302 292 313 308 263 1 294 319 308 298 279 274 263 247 261 273 265 259 242 250 229 229 220 202 202 208 207 196 188 177 165 168 161 158 162 165 166 153 145 141 138 138 116 115 86 83
283 227 271 278 258 262 238 250 236 246 226 84 21 52 148 303 320 325 316 290 290 284 264 246 232 223 219 207 209 210 195 183 168 164 157 163 151 151 154 157 145 141 141 144 133 117 100 87 75
247 295 250 228 266 267 268 290 266 169 83 102 99 92 166 294 312 320 312 313 316 298 284 266 240 228 218 215 214 215 192 180 162 155 156 155 155 152 153 149 140 141 132 131 120 102 87 84 81
238 246 245 272 271 270 290 298 54 286 294 321 310 276 309 316 306 312 313 316 313 302 284 280 245 234 220 216 215 218 195 173 149 154 156 161 166 155 153 146 141 135 125 121 112 97 90 86 85
264 250 250 249 255 251 279 276 302 309 291 15 261 270 299 311 302 296 296 298 303 300 285 277 252 237 219 217 214 214 179 157 161 159 150 151 149 149 143 140 135 130 127 118 103 101 95 88 79